EW9826 Weather Reports


Display with metric or nautical units.
time (UTC)temp
F
wind
direction
speed
MPH
gust
MPH
rain 1hr
in
rain 24hr
in
rain mn
in
humidity
%
barometer
mb
20260901072053 65 291 3.0 8.0 0.00 0.27 0.00 81 1018.8
20260901071551 65 286 4.0 7.0 0.00 0.27 0.00 81 1018.8
20260901071053 64 271 3.0 8.0 0.00 0.27 0.00 82 1018.7
20260901070051 64 299 2.0 3.0 0.00 0.27 0.00 86 1018.5
20260901065052 64 299 1.0 3.0 0.00 0.27 0.00 87 1018.4
20260901064552 63 299 2.0 3.0 0.00 0.27 0.00 87 1018.4
20260901063053 63 299 1.0 5.0 0.00 0.28 0.00 89 1018.4
20260901062551 62 299 1.0 3.0 0.00 0.28 0.00 90 1018.4
20260901060051 62 299 0.0 2.0 0.00 0.28 0.00 92 1018.2
20260901055052 62 299 0.0 3.0 0.00 0.28 0.00 93 1018.2
20260901054551 62 299 2.0 3.0 0.00 0.28 0.00 93 1018.0
20260901054052 62 299 2.0 3.0 0.00 0.29 0.00 93 1017.9
20260901053551 62 299 1.0 3.0 0.00 0.31 0.00 93 1017.9
20260901052052 61 299 1.0 2.0 0.00 0.32 0.00 93 1017.8
20260901051552 61 299 0.0 0.0 0.00 0.32 0.00 93 1017.7
20260901051053 62 299 1.0 2.0 0.00 0.32 0.00 93 1017.5
20260901050051 62 299 0.0 0.0 0.00 0.32 0.00 93 1017.4
20260901045551 62 299 1.0 3.0 0.00 0.32 0.00 93 1017.4
20260901043052 62 299 0.0 0.0 0.00 0.32 0.00 94 1017.4
20260901042551 62 299 0.0 0.0 0.00 0.32 0.00 94 1017.4
20260901042052 61 299 0.0 0.0 0.00 0.32 0.00 94 1017.3
20260901040052 61 299 0.0 0.0 0.00 0.32 0.00 94 1017.1
20260901034052 61 299 0.0 2.0 0.00 0.32 0.00 94 1017.0
20260901033552 62 299 0.0 2.0 0.00 0.32 0.00 94 1017.0
20260901030051 62 299 0.0 2.0 0.00 0.32 0.00 95 1016.9
20260901025551 62 299 1.0 3.0 0.00 0.32 0.00 95 1016.9
20260901024552 61 299 1.0 2.0 0.00 0.32 0.00 94 1016.9
20260901024052 61 299 0.0 2.0 0.00 0.32 0.00 94 1016.8
20260901023551 61 299 0.0 2.0 0.00 0.32 0.00 94 1016.8
20260901023052 61 299 1.0 2.0 0.00 0.32 0.00 94 1016.8
20260901022552 61 299 0.0 1.0 0.00 0.32 0.00 94 1016.8
20260901020051 61 299 0.0 1.0 0.00 0.32 0.00 94 1016.8
20260901015551 61 299 1.0 2.0 0.00 0.32 0.00 94 1016.8
20260901010051 60 299 1.0 2.0 0.00 0.32 0.00 94 1016.6
20260901005551 60 299 1.0 3.0 0.00 0.32 0.00 94 1016.7
20260901005052 60 299 2.0 3.0 0.00 0.32 0.00 93 1016.7
20260901004551 60 299 2.0 3.0 0.00 0.32 0.00 93 1016.6
20260901004052 60 300 1.0 3.0 0.00 0.32 0.00 93 1016.7
20260901003551 60 300 2.0 3.0 0.00 0.32 0.00 93 1016.6
20260901003052 60 300 2.0 3.0 0.00 0.32 0.00 93 1016.6
20260901000051 61 300 1.0 2.0 0.00 0.32 0.00 93 1016.4
20260831235551 61 300 0.0 2.0 0.00 0.32 0.00 93 1016.3
20260831233551 61 300 2.0 3.0 0.00 0.32 0.00 93 1016.3
20260831232551 61 300 2.0 3.0 0.00 0.33 0.00 93 1016.3
20260831232051 61 301 2.0 3.0 0.00 0.33 0.00 93 1016.3
20260831225051 61 304 0.0 2.0 0.01 0.33 0.00 92 1016.2
20260831224551 61 304 1.0 3.0 0.01 0.33 0.00 92 1016.1
20260831223551 61 304 2.0 3.0 0.03 0.33 0.00 92 1015.9
20260831223051 61 304 0.0 0.0 0.04 0.33 0.00 91 1015.9
20260831222551 61 304 0.0 1.0 0.09 0.33 0.00 91 1015.8
20260831222052 61 304 0.0 2.0 0.14 0.33 0.00 91 1015.8
20260831221550 62 304 0.0 1.0 0.14 0.33 0.00 91 1015.8
20260831221053 62 304 1.0 3.0 0.14 0.33 0.00 90 1015.8
20260831220051 62 304 1.0 2.0 0.14 0.33 0.00 90 1015.8
20260831214551 63 304 0.0 2.0 0.13 0.32 0.32 88 1015.8
20260831213051 64 293 4.0 9.0 0.11 0.30 0.30 86 1016.2
20260831212551 65 315 11.0 22.0 0.09 0.28 0.28 84 1016.3
20260831212051 66 248 2.0 3.0 0.00 0.19 0.19 84 1015.6
20260831211551 66 248 2.0 3.0 0.00 0.19 0.19 83 1015.3
20260831211051 66 248 1.0 3.0 0.00 0.19 0.19 83 1015.3
20260831205550 66 248 1.0 3.0 0.00 0.19 0.19 81 1015.3
20260831204051 66 248 0.0 2.0 0.00 0.23 0.19 80 1015.2
20260831203551 66 248 1.0 3.0 0.00 0.23 0.19 79 1015.2
20260831203052 67 248 1.0 3.0 0.00 0.24 0.19 79 1015.2
20260831202051 67 249 3.0 5.0 0.00 0.33 0.19 78 1015.1
20260831201551 67 250 2.0 3.0 0.00 0.44 0.19 78 1015.0
20260831201052 67 250 1.0 6.0 0.00 0.45 0.19 78 1014.9
20260831200051 67 250 2.0 5.0 0.00 0.45 0.19 78 1014.8
20260831195551 68 250 3.0 8.0 0.00 0.45 0.19 78 1014.8
20260831195051 67 250 3.0 8.0 0.00 0.45 0.19 78 1014.8
20260831194550 67 250 3.0 6.0 0.00 0.45 0.19 78 1014.8
20260831194051 67 246 3.0 8.0 0.00 0.45 0.19 78 1014.8
20260831193550 67 247 3.0 6.0 0.00 0.45 0.19 78 1014.8
20260831192051 67 247 2.0 7.0 0.00 0.45 0.19 77 1014.6
20260831191550 67 236 3.0 10.0 0.00 0.45 0.19 77 1014.6
20260831191051 67 261 3.0 8.0 0.00 0.45 0.19 77 1014.4
20260831190050 68 249 3.0 7.0 0.00 0.45 0.19 76 1014.3
20260831185550 68 264 5.0 7.0 0.00 0.45 0.19 76 1014.3
20260831184051 68 259 4.0 9.0 0.00 0.45 0.19 76 1014.2
20260831183550 68 297 3.0 10.0 0.00 0.45 0.19 75 1014.0
20260831182550 68 243 3.0 13.0 0.00 0.45 0.19 75 1013.8
20260831182051 68 256 4.0 15.0 0.00 0.45 0.19 74 1013.8
20260831175051 68 253 6.0 13.0 0.00 0.45 0.19 74 1013.4
20260831174550 68 270 6.0 13.0 0.00 0.45 0.19 74 1013.3
20260831171551 69 287 5.0 15.0 0.00 0.45 0.19 72 1013.0
20260831171050 69 273 7.0 18.0 0.00 0.45 0.19 72 1012.8
20260831170050 69 261 6.0 13.0 0.00 0.45 0.19 73 1012.7
20260831165550 69 273 8.0 15.0 0.00 0.45 0.19 72 1012.7
20260831165050 69 271 7.0 13.0 0.00 0.45 0.19 72 1012.7
20260831164550 69 266 4.0 13.0 0.00 0.45 0.19 72 1012.7
20260831162550 68 281 9.0 15.0 0.00 0.45 0.19 73 1012.5
20260831162050 68 288 10.0 17.0 0.00 0.45 0.19 74 1012.5
20260831160050 68 293 7.0 14.0 0.00 0.45 0.19 75 1012.2
20260831155549 68 288 5.0 12.0 0.00 0.45 0.19 75 1012.2
20260831151550 68 288 8.0 20.0 0.00 0.45 0.19 73 1011.9
20260831151051 68 277 7.0 22.0 0.00 0.45 0.19 73 1011.8
20260831150050 68 246 10.0 20.0 0.00 0.45 0.19 72 1011.7
20260831145550 68 290 7.0 20.0 0.00 0.45 0.19 72 1011.7
20260831143051 67 297 6.0 12.0 0.00 0.45 0.19 77 1011.3
20260831142550 66 269 5.0 10.0 0.00 0.45 0.19 78 1011.2
20260831142050 66 289 7.0 16.0 0.00 0.45 0.19 78 1011.2
20260831141549 66 277 6.0 13.0 0.00 0.45 0.19 78 1011.1
20260831141051 65 294 6.0 14.0 0.00 0.45 0.19 79 1011.1
20260831140050 65 250 7.0 14.0 0.00 0.45 0.19 79 1010.8
20260831135550 66 257 7.0 15.0 0.00 0.45 0.19 78 1010.8
20260831134051 66 278 10.0 20.0 0.00 0.45 0.19 75 1010.6
20260831132550 67 271 8.0 16.0 0.00 0.45 0.19 73 1010.3
20260831132051 67 279 8.0 18.0 0.00 0.45 0.19 73 1010.3
20260831131549 67 279 8.0 23.0 0.00 0.45 0.19 73 1010.2
20260831131050 67 280 10.0 23.0 0.00 0.45 0.19 73 1010.1
20260831124550 67 248 7.0 17.0 0.00 0.45 0.19 73 1009.8
20260831124051 67 261 6.0 22.0 0.00 0.45 0.19 75 1009.7
20260831122051 67 259 10.0 22.0 0.05 0.45 0.19 75 1009.5
20260831121549 67 269 8.0 15.0 0.06 0.45 0.19 80 1009.4
20260831121051 66 252 7.0 15.0 0.07 0.45 0.19 83 1009.2
20260831120049 64 270 7.0 14.0 0.08 0.45 0.19 88 1009.1
20260831115549 63 255 7.0 17.0 0.08 0.45 0.19 90 1009.1
20260831115050 63 229 6.0 10.0 0.08 0.45 0.19 90 1009.1
20260831114550 62 233 4.0 9.0 0.08 0.45 0.19 90 1009.1
20260831114050 62 246 5.0 9.0 0.09 0.45 0.19 90 1009.1
20260831112050 62 252 10.0 16.0 0.04 0.40 0.14 88 1009.1
20260831111550 62 247 7.0 17.0 0.03 0.39 0.13 87 1009.0
20260831111050 62 254 8.0 17.0 0.04 0.38 0.12 87 1009.0
20260831110050 63 238 10.0 20.0 0.03 0.37 0.11 85 1008.9
20260831105549 63 263 6.0 17.0 0.03 0.37 0.11 84 1008.8
20260831105050 63 255 9.0 17.0 0.03 0.37 0.11 83 1008.7
20260831104549 64 259 7.0 14.0 0.03 0.37 0.11 83 1008.6
20260831104050 64 231 5.0 14.0 0.02 0.36 0.10 86 1008.5
20260831103550 64 279 7.0 14.0 0.02 0.36 0.10 87 1008.4
20260831102050 63 252 6.0 15.0 0.02 0.36 0.10 84 1008.1
20260831101549 63 253 8.0 15.0 0.02 0.35 0.09 82 1008.2
20260831101050 64 298 7.0 20.0 0.00 0.34 0.08 79 1008.1
20260831095550 67 227 7.0 17.0 0.00 0.36 0.08 77 1007.9
20260831095050 66 229 7.0 21.0 0.00 0.39 0.08 78 1007.7
20260831093549 67 224 12.0 22.0 0.00 0.39 0.08 75 1007.6
20260831091050 66 222 6.0 21.0 0.00 0.39 0.08 77 1007.4
20260831090049 66 221 7.0 20.0 0.00 0.40 0.08 78 1007.2
20260831085549 66 223 12.0 21.0 0.00 0.40 0.08 79 1007.2
20260831085050 65 204 9.0 22.0 0.00 0.40 0.08 80 1007.2
20260831084549 65 223 7.0 20.0 0.01 0.40 0.08 81 1007.3
20260831081551 65 198 9.0 17.0 0.02 0.42 0.08 83 1007.0
20260831081050 65 248 10.0 21.0 0.02 0.42 0.08 84 1007.0
20260831080049 64 234 10.0 21.0 0.02 0.45 0.08 86 1006.7
20260831075549 64 241 13.0 24.0 0.02 0.46 0.08 86 1006.8
20260831074549 64 219 10.0 16.0 0.01 0.46 0.07 86 1006.6
20260831073050 64 207 9.0 17.0 0.01 0.45 0.06 86 1006.5
20260831072549 64 258 8.0 20.0 0.01 0.45 0.06 87 1006.5